WZZ663 EGCC-EDDV

Flight info

Callsign WZZ663
Flight time 1h 23m
Altitude 39000
Route DESI1S DESIG L603 LAMSO PETIK ANDIK PIPQU EFIDE T463 NIE NIE1R
Aircraft A20N/M-SADE1E2E3GHIJ1J3J5M1P2RWXY/LB1

Departure

Time 2026-05-03 21:08
Airport Manchester Airport (EGCC)

Arrival

Time 2026-05-03 22:32
Airport Hannover Airport (EDDV)
Time Latitude Longitude Altitude Speed Heading
2026-05-03 20:47 53.36183 -2.27755 218 ft 0 kts 45°
2026-05-03 20:57 53.36183 -2.27754 243 ft 1 kts 45°
2026-05-03 20:58 53.36182 -2.27757 243 ft 1 kts 45°
2026-05-03 20:58 53.36176 -2.27767 243 ft 1 kts 45°
2026-05-03 20:58 53.36171 -2.27776 243 ft 1 kts 45°
2026-05-03 20:58 53.36165 -2.27785 242 ft 1 kts 45°
2026-05-03 20:59 53.36160 -2.27794 242 ft 1 kts 45°
2026-05-03 20:59 53.36152 -2.27808 242 ft 2 kts 45°
2026-05-03 20:59 53.36142 -2.27825 242 ft 2 kts 45°
2026-05-03 20:59 53.36132 -2.27842 242 ft 2 kts 52°
2026-05-03 21:00 53.36124 -2.27862 242 ft 2 kts 67°
2026-05-03 21:00 53.36122 -2.27869 242 ft 2 kts 72°
2026-05-03 21:00 53.36119 -2.27914 241 ft 3 kts 102°
2026-05-03 21:00 53.36120 -2.27922 241 ft 0 kts 107°
2026-05-03 21:02 53.36115 -2.27892 241 ft 9 kts 108°
2026-05-03 21:02 53.36090 -2.27761 242 ft 14 kts 106°
2026-05-03 21:02 53.36065 -2.27633 243 ft 8 kts 130°
2026-05-03 21:02 53.36008 -2.27621 242 ft 10 kts 188°
2026-05-03 21:03 53.35977 -2.27632 242 ft 0 kts 192°
2026-05-03 21:03 53.35957 -2.27637 242 ft 12 kts 187°
2026-05-03 21:03 53.35847 -2.27652 241 ft 19 kts 184°
2026-05-03 21:03 53.35715 -2.27715 240 ft 21 kts 221°
2026-05-03 21:04 53.35619 -2.27911 238 ft 23 kts 229°
2026-05-03 21:04 53.35497 -2.28117 237 ft 26 kts 206°
2026-05-03 21:04 53.35312 -2.28208 233 ft 29 kts 205°
2026-05-03 21:04 53.35174 -2.28450 230 ft 27 kts 244°
2026-05-03 21:05 53.35050 -2.28664 226 ft 27 kts 237°
2026-05-03 21:05 53.35029 -2.28718 227 ft 0 kts 237°
2026-05-03 21:05 53.34993 -2.28787 224 ft 14 kts 224°
2026-05-03 21:05 53.34909 -2.28921 223 ft 19 kts 224°
2026-05-03 21:06 53.34847 -2.29040 221 ft 22 kts 230°
2026-05-03 21:06 53.34701 -2.29307 220 ft 26 kts 212°
2026-05-03 21:06 53.34626 -2.29346 219 ft 0 kts 176°
2026-05-03 21:06 53.34551 -2.29278 215 ft 19 kts 119°
2026-05-03 21:07 53.34634 -2.29032 222 ft 19 kts 50°
2026-05-03 21:07 53.34692 -2.28913 220 ft 20 kts 51°
2026-05-03 21:07 53.34779 -2.28726 223 ft 20 kts 53°
2026-05-03 21:07 53.34884 -2.28501 227 ft 48 kts 51°
2026-05-03 21:08 53.35291 -2.27659 238 ft 133 kts 50°
2026-05-03 21:08 53.36018 -2.26192 272 ft 195 kts 50°
2026-05-03 21:08 53.36857 -2.24297 985 ft 210 kts 56°
2026-05-03 21:08 53.37719 -2.22244 2029 ft 219 kts 52°
2026-05-03 21:09 53.38681 -2.20131 2946 ft 239 kts 52°
2026-05-03 21:09 53.39761 -2.17804 3673 ft 269 kts 51°
2026-05-03 21:09 53.41011 -2.15151 3956 ft 312 kts 51°
2026-05-03 21:09 53.42443 -2.12137 4196 ft 349 kts 51°
2026-05-03 21:10 53.44043 -2.08780 4239 ft 387 kts 51°
2026-05-03 21:10 53.45760 -2.05177 4870 ft 391 kts 51°
2026-05-03 21:10 53.47473 -2.01625 4940 ft 387 kts 50°
2026-05-03 21:10 53.49132 -1.98210 4243 ft 374 kts 51°
2026-05-03 21:11 53.50782 -1.94813 3673 ft 367 kts 51°
2026-05-03 21:11 53.52258 -1.91666 4288 ft 323 kts 57°
2026-05-03 21:11 53.53102 -1.88295 4097 ft 309 kts 79°
2026-05-03 21:11 53.53041 -1.84810 4033 ft 292 kts 105°
2026-05-03 21:12 53.52256 -1.81661 4035 ft 296 kts 117°
2026-05-03 21:12 53.51328 -1.78596 4158 ft 291 kts 116°
2026-05-03 21:12 53.50528 -1.75566 4708 ft 277 kts 112°
2026-05-03 21:12 53.49855 -1.72567 4954 ft 273 kts 109°
2026-05-03 21:13 53.49257 -1.69549 5028 ft 272 kts 108°
2026-05-03 21:13 53.48701 -1.66514 5036 ft 272 kts 107°
2026-05-03 21:13 53.48162 -1.63475 5036 ft 273 kts 107°
2026-05-03 21:13 53.47601 -1.60284 5036 ft 301 kts 107°
2026-05-03 21:14 53.46993 -1.56843 5036 ft 303 kts 107°
2026-05-03 21:14 53.46399 -1.53506 5038 ft 303 kts 107°
2026-05-03 21:14 53.45792 -1.50111 5039 ft 304 kts 107°
2026-05-03 21:14 53.45184 -1.46722 5032 ft 303 kts 107°
2026-05-03 21:15 53.44573 -1.43320 5063 ft 304 kts 107°
2026-05-03 21:15 53.43958 -1.39903 5485 ft 308 kts 107°
2026-05-03 21:15 53.43345 -1.36505 6571 ft 307 kts 107°
2026-05-03 21:15 53.42729 -1.33097 7635 ft 311 kts 107°
2026-05-03 21:16 53.42094 -1.29594 8638 ft 316 kts 107°
2026-05-03 21:16 53.41449 -1.26036 9629 ft 321 kts 107°
2026-05-03 21:16 53.40794 -1.22418 10519 ft 331 kts 107°
2026-05-03 21:16 53.40111 -1.18659 10979 ft 350 kts 107°
2026-05-03 21:17 53.39395 -1.14725 11840 ft 355 kts 107°
2026-05-03 21:17 53.38905 -1.12043 12444 ft 358 kts 107°
2026-05-03 21:17 53.37931 -1.06718 13581 ft 364 kts 107°
2026-05-03 21:17 53.37182 -1.02634 14395 ft 369 kts 107°
2026-05-03 21:18 53.36423 -0.98502 15195 ft 373 kts 107°
2026-05-03 21:18 53.35653 -0.94324 15971 ft 378 kts 107°
2026-05-03 21:18 53.34875 -0.90107 16732 ft 382 kts 107°
2026-05-03 21:18 53.34079 -0.85810 17455 ft 386 kts 107°
2026-05-03 21:19 53.33279 -0.81494 18178 ft 390 kts 107°
2026-05-03 21:19 53.32468 -0.77134 18877 ft 394 kts 107°
2026-05-03 21:19 53.31648 -0.72735 19557 ft 399 kts 107°
2026-05-03 21:19 53.30829 -0.68350 20208 ft 403 kts 107°
2026-05-03 21:20 53.29984 -0.63838 20858 ft 407 kts 107°
2026-05-03 21:20 53.29132 -0.59312 21482 ft 410 kts 107°
2026-05-03 21:20 53.28270 -0.54739 22090 ft 415 kts 108°
2026-05-03 21:20 53.27399 -0.50129 22689 ft 418 kts 108°
2026-05-03 21:21 53.26515 -0.45468 23269 ft 422 kts 108°
2026-05-03 21:21 53.25632 -0.40811 23838 ft 425 kts 108°
2026-05-03 21:21 53.24734 -0.36079 24391 ft 429 kts 108°
2026-05-03 21:21 53.23830 -0.31321 24918 ft 433 kts 108°
2026-05-03 21:22 53.22918 -0.26534 25426 ft 436 kts 108°
2026-05-03 21:22 53.21987 -0.21681 25923 ft 439 kts 108°
2026-05-03 21:22 53.21060 -0.16865 26387 ft 443 kts 108°
2026-05-03 21:22 53.20113 -0.11958 26840 ft 446 kts 108°
2026-05-03 21:23 53.19157 -0.07011 27282 ft 449 kts 108°
2026-05-03 21:23 53.18192 -0.02034 27699 ft 452 kts 108°
2026-05-03 21:23 53.17220 0.02964 28107 ft 455 kts 108°
2026-05-03 21:23 53.16241 0.07997 28494 ft 457 kts 108°
2026-05-03 21:24 53.15254 0.13054 28883 ft 460 kts 108°
2026-05-03 21:24 53.14276 0.18054 29231 ft 462 kts 108°
2026-05-03 21:24 53.13272 0.23174 29565 ft 465 kts 108°
2026-05-03 21:24 53.12264 0.28299 29910 ft 467 kts 108°
2026-05-03 21:25 53.11248 0.33452 30244 ft 470 kts 108°
2026-05-03 21:25 53.10223 0.38637 30583 ft 472 kts 108°
2026-05-03 21:25 53.09189 0.43848 30910 ft 474 kts 108°
2026-05-03 21:25 53.08151 0.49068 31188 ft 477 kts 108°
2026-05-03 21:26 53.07106 0.54314 31472 ft 478 kts 108°
2026-05-03 21:26 53.06055 0.59570 31818 ft 478 kts 108°
2026-05-03 21:26 53.05006 0.64805 32166 ft 477 kts 108°
2026-05-03 21:26 53.03958 0.70020 32504 ft 476 kts 108°
2026-05-03 21:27 53.02906 0.75242 32833 ft 475 kts 108°
2026-05-03 21:27 53.01853 0.80450 33161 ft 475 kts 109°
2026-05-03 21:27 53.00814 0.85583 33468 ft 474 kts 109°
2026-05-03 21:27 52.99760 0.90770 33753 ft 473 kts 109°
2026-05-03 21:28 52.98706 0.95948 34062 ft 473 kts 109°
2026-05-03 21:28 52.97750 1.01151 34343 ft 472 kts 103°
2026-05-03 21:28 52.97107 1.06481 34619 ft 471 kts 101°
2026-05-03 21:28 52.96504 1.11828 34889 ft 471 kts 101°
2026-05-03 21:29 52.95894 1.17170 35155 ft 470 kts 101°
2026-05-03 21:29 52.95281 1.22490 35410 ft 470 kts 101°
2026-05-03 21:29 52.94662 1.27814 35662 ft 469 kts 101°
2026-05-03 21:29 52.94041 1.33127 35903 ft 469 kts 101°
2026-05-03 21:30 52.93419 1.38427 36134 ft 468 kts 101°
2026-05-03 21:30 52.92794 1.43726 36354 ft 468 kts 101°
2026-05-03 21:30 52.92167 1.49023 36548 ft 468 kts 101°
2026-05-03 21:30 52.91538 1.54310 36747 ft 468 kts 101°
2026-05-03 21:31 52.90907 1.59599 36937 ft 468 kts 101°
2026-05-03 21:31 52.90273 1.64887 37126 ft 468 kts 101°
2026-05-03 21:31 52.89637 1.70174 37306 ft 468 kts 101°
2026-05-03 21:31 52.88999 1.75456 37482 ft 468 kts 101°
2026-05-03 21:32 52.88367 1.80674 37651 ft 468 kts 101°
2026-05-03 21:32 52.87724 1.85955 37817 ft 468 kts 101°
2026-05-03 21:32 52.87077 1.91243 37979 ft 468 kts 101°
2026-05-03 21:32 52.86430 1.96521 38148 ft 468 kts 101°
2026-05-03 21:33 52.85780 2.01794 38287 ft 468 kts 101°
2026-05-03 21:33 52.85126 2.07082 38439 ft 468 kts 102°
2026-05-03 21:33 52.84472 2.12352 38584 ft 468 kts 102°
2026-05-03 21:33 52.83815 2.17624 38725 ft 468 kts 102°
2026-05-03 21:34 52.83156 2.22895 38861 ft 468 kts 102°
2026-05-03 21:34 52.82495 2.28154 38987 ft 468 kts 102°
2026-05-03 21:34 52.81165 2.38686 39034 ft 467 kts 102°
2026-05-03 21:35 52.79828 2.49201 39034 ft 467 kts 102°
2026-05-03 21:35 52.78488 2.59642 39034 ft 467 kts 102°
2026-05-03 21:36 52.77128 2.70148 39034 ft 467 kts 102°
2026-05-03 21:36 52.75759 2.80642 39034 ft 467 kts 102°
2026-05-03 21:37 52.74385 2.91136 39034 ft 467 kts 102°
2026-05-03 21:37 52.73082 3.01577 39035 ft 467 kts 98°
2026-05-03 21:38 52.72122 3.12173 39034 ft 467 kts 98°
2026-05-03 21:38 52.71142 3.22767 39034 ft 467 kts 98°
2026-05-03 21:39 52.70150 3.33349 39034 ft 467 kts 99°
2026-05-03 21:39 52.69146 3.43951 39034 ft 467 kts 99°
2026-05-03 21:40 52.68134 3.54532 39034 ft 467 kts 99°
2026-05-03 21:40 52.67113 3.65107 39034 ft 467 kts 99°
2026-05-03 21:41 52.66087 3.75639 39033 ft 467 kts 99°
2026-05-03 21:41 52.65047 3.86203 39034 ft 467 kts 99°
2026-05-03 21:42 52.63997 3.96771 39034 ft 467 kts 99°
2026-05-03 21:42 52.62938 4.07328 39034 ft 467 kts 99°
2026-05-03 21:43 52.62004 4.17916 39035 ft 467 kts 93°
2026-05-03 21:43 52.62337 4.28507 39034 ft 467 kts 80°
2026-05-03 21:44 52.63624 4.38991 39034 ft 467 kts 78°
2026-05-03 21:44 52.64893 4.49482 39033 ft 467 kts 79°
2026-05-03 21:45 52.66150 4.59992 39034 ft 467 kts 79°
2026-05-03 21:45 52.67398 4.70497 39033 ft 467 kts 79°
2026-05-03 21:46 52.68630 4.80952 39034 ft 467 kts 79°
2026-05-03 21:46 52.69861 4.91470 39033 ft 467 kts 79°
2026-05-03 21:47 52.71081 5.01990 39034 ft 467 kts 79°
2026-05-03 21:47 52.72292 5.12522 39034 ft 467 kts 79°
2026-05-03 21:48 52.73374 5.23095 39035 ft 467 kts 85°
2026-05-03 21:48 52.73187 5.33788 39034 ft 467 kts 99°
2026-05-03 21:49 52.72014 5.44261 39034 ft 467 kts 100°
2026-05-03 21:49 52.70842 5.54804 39034 ft 467 kts 100°
2026-05-03 21:50 52.69655 5.65342 39033 ft 467 kts 101°
2026-05-03 21:50 52.68454 5.75867 39034 ft 467 kts 101°
2026-05-03 21:51 52.67242 5.86401 39034 ft 467 kts 101°
2026-05-03 21:51 52.66021 5.96917 39034 ft 467 kts 101°
2026-05-03 21:52 52.64793 6.07411 39028 ft 466 kts 101°
2026-05-03 21:52 52.64172 6.12633 38808 ft 463 kts 101°
2026-05-03 21:52 52.63532 6.17769 38284 ft 462 kts 102°
2026-05-03 21:53 52.62877 6.22934 37601 ft 462 kts 102°
2026-05-03 21:53 52.62218 6.28116 36865 ft 461 kts 102°
2026-05-03 21:53 52.61561 6.33280 36104 ft 461 kts 102°
2026-05-03 21:53 52.60902 6.38458 35302 ft 462 kts 102°
2026-05-03 21:54 52.60266 6.43450 34472 ft 464 kts 102°
2026-05-03 21:54 52.59579 6.48822 33561 ft 466 kts 102°
2026-05-03 21:54 52.58910 6.54041 32655 ft 467 kts 102°
2026-05-03 21:54 52.58234 6.59287 31724 ft 469 kts 102°
2026-05-03 21:55 52.57776 6.62840 31082 ft 470 kts 102°
2026-05-03 21:55 52.57104 6.68025 30301 ft 468 kts 102°
2026-05-03 21:55 52.56419 6.73295 29661 ft 462 kts 102°
2026-05-03 21:55 52.55759 6.78349 29193 ft 453 kts 102°
2026-05-03 21:56 52.55107 6.83329 29052 ft 437 kts 102°
2026-05-03 21:56 52.54481 6.88091 29030 ft 418 kts 102°
2026-05-03 21:56 52.53256 6.97365 29033 ft 420 kts 102°
2026-05-03 21:57 52.52257 7.06793 29034 ft 419 kts 93°
2026-05-03 21:57 52.52417 7.16353 29035 ft 419 kts 87°
2026-05-03 21:58 52.52701 7.25920 29035 ft 419 kts 87°
2026-05-03 21:58 52.52968 7.35483 29031 ft 419 kts 87°
2026-05-03 21:59 52.53228 7.45053 29032 ft 419 kts 87°
2026-05-03 21:59 52.53478 7.54521 28669 ft 415 kts 88°
2026-05-03 22:00 52.53600 7.59263 28195 ft 412 kts 88°
2026-05-03 22:00 52.53720 7.63950 27657 ft 409 kts 88°
2026-05-03 22:00 52.53836 7.68605 27116 ft 406 kts 88°
2026-05-03 22:00 52.53950 7.73213 26577 ft 403 kts 88°
2026-05-03 22:01 52.54061 7.77805 26034 ft 400 kts 88°
2026-05-03 22:01 52.54170 7.82343 25511 ft 396 kts 88°
2026-05-03 22:01 52.54278 7.86858 24981 ft 393 kts 88°
2026-05-03 22:01 52.54382 7.91324 24456 ft 390 kts 88°
2026-05-03 22:02 52.54484 7.95745 23928 ft 386 kts 88°
2026-05-03 22:02 52.54583 8.00133 23409 ft 383 kts 88°
2026-05-03 22:02 52.54680 8.04506 22885 ft 380 kts 88°
2026-05-03 22:02 52.54775 8.08833 22364 ft 377 kts 88°
2026-05-03 22:03 52.54866 8.13073 21850 ft 374 kts 88°
2026-05-03 22:03 52.54956 8.17341 21329 ft 371 kts 88°
2026-05-03 22:03 52.55044 8.21565 20817 ft 369 kts 88°
2026-05-03 22:03 52.55130 8.25761 20317 ft 366 kts 88°
2026-05-03 22:04 52.55213 8.29915 19820 ft 363 kts 88°
2026-05-03 22:04 52.55295 8.34047 19320 ft 360 kts 88°
2026-05-03 22:04 52.55374 8.38143 18826 ft 357 kts 88°
2026-05-03 22:04 52.55536 8.42202 18321 ft 355 kts 83°
2026-05-03 22:05 52.55857 8.46206 17834 ft 352 kts 82°
2026-05-03 22:05 52.56172 8.50179 17348 ft 349 kts 82°
2026-05-03 22:05 52.56476 8.54075 16865 ft 347 kts 83°
2026-05-03 22:05 52.56783 8.58049 16385 ft 344 kts 83°
2026-05-03 22:06 52.57078 8.61897 15899 ft 342 kts 83°
2026-05-03 22:06 52.57372 8.65753 15432 ft 339 kts 83°
2026-05-03 22:06 52.57662 8.69576 15126 ft 334 kts 83°
2026-05-03 22:06 52.57950 8.73390 15046 ft 338 kts 83°
2026-05-03 22:07 52.58239 8.77225 15035 ft 338 kts 83°
2026-05-03 22:07 52.58526 8.81065 15036 ft 338 kts 83°
2026-05-03 22:07 52.58813 8.84911 15036 ft 338 kts 83°
2026-05-03 22:07 52.59099 8.88754 15036 ft 338 kts 83°
2026-05-03 22:08 52.59382 8.92584 15034 ft 338 kts 83°
2026-05-03 22:08 52.59664 8.96424 15033 ft 338 kts 83°
2026-05-03 22:08 52.59946 9.00266 15036 ft 338 kts 83°
2026-05-03 22:08 52.60226 9.04102 15036 ft 338 kts 83°
2026-05-03 22:09 52.60505 9.07952 15029 ft 338 kts 83°
2026-05-03 22:09 52.60778 9.11729 14859 ft 335 kts 83°
2026-05-03 22:09 52.61051 9.15530 14484 ft 334 kts 83°
2026-05-03 22:10 52.61590 9.23080 13555 ft 330 kts 83°
2026-05-03 22:10 52.61855 9.26813 13078 ft 328 kts 83°
2026-05-03 22:10 52.62117 9.30522 12622 ft 326 kts 83°
2026-05-03 22:10 52.62360 9.34222 12151 ft 323 kts 87°
2026-05-03 22:11 52.62246 9.37899 11675 ft 321 kts 99°
2026-05-03 22:11 52.61651 9.41424 11217 ft 319 kts 111°
2026-05-03 22:11 52.60853 9.44809 10752 ft 317 kts 111°
2026-05-03 22:11 52.60074 9.48196 10288 ft 315 kts 111°
2026-05-03 22:12 52.59320 9.51503 9843 ft 313 kts 110°
2026-05-03 22:12 52.58559 9.54841 9391 ft 310 kts 110°
2026-05-03 22:12 52.57803 9.58151 8934 ft 308 kts 111°
2026-05-03 22:12 52.57039 9.61487 8469 ft 306 kts 111°
2026-05-03 22:13 52.56290 9.64752 8021 ft 304 kts 111°
2026-05-03 22:13 52.55554 9.67951 7580 ft 302 kts 111°
2026-05-03 22:13 52.54816 9.71179 7131 ft 300 kts 109°
2026-05-03 22:13 52.54312 9.74499 6679 ft 299 kts 98°
2026-05-03 22:14 52.54159 9.77886 6235 ft 297 kts 92°
2026-05-03 22:14 52.54082 9.81265 5792 ft 295 kts 92°
2026-05-03 22:14 52.53992 9.84626 5350 ft 293 kts 92°
2026-05-03 22:14 52.53896 9.87950 4914 ft 291 kts 92°
2026-05-03 22:15 52.53797 9.91280 4474 ft 289 kts 92°
2026-05-03 22:15 52.53698 9.94562 4146 ft 284 kts 93°
2026-05-03 22:15 52.53604 9.97682 4024 ft 271 kts 93°
2026-05-03 22:15 52.53512 10.00713 3913 ft 259 kts 93°
2026-05-03 22:16 52.53424 10.03595 3807 ft 248 kts 93°
2026-05-03 22:16 52.53338 10.06395 3559 ft 244 kts 93°
2026-05-03 22:16 52.53251 10.09175 3255 ft 243 kts 93°
2026-05-03 22:16 52.53165 10.11933 3068 ft 239 kts 93°
2026-05-03 22:17 52.53077 10.14706 3034 ft 243 kts 93°
2026-05-03 22:17 52.52989 10.17474 3033 ft 242 kts 93°
2026-05-03 22:17 52.52900 10.20247 3033 ft 243 kts 93°
2026-05-03 22:17 52.52811 10.23016 3034 ft 243 kts 93°
2026-05-03 22:18 52.52722 10.25748 3033 ft 243 kts 93°
2026-05-03 22:18 52.52632 10.28518 3033 ft 243 kts 93°
2026-05-03 22:18 52.52541 10.31285 3033 ft 243 kts 93°
2026-05-03 22:18 52.52449 10.34053 3034 ft 243 kts 93°
2026-05-03 22:19 52.52356 10.36822 3033 ft 243 kts 93°
2026-05-03 22:19 52.52264 10.39578 3035 ft 238 kts 93°
2026-05-03 22:19 52.52172 10.42143 3035 ft 211 kts 93°
2026-05-03 22:19 52.52090 10.44423 3030 ft 192 kts 93°
2026-05-03 22:20 52.52015 10.46602 3034 ft 191 kts 93°
2026-05-03 22:20 52.51943 10.48775 3033 ft 190 kts 93°
2026-05-03 22:20 52.51809 10.50929 3029 ft 190 kts 108°
2026-05-03 22:20 52.51036 10.52645 3035 ft 189 kts 147°
2026-05-03 22:21 52.49790 10.53168 3034 ft 188 kts 187°
2026-05-03 22:21 52.48632 10.52269 3036 ft 187 kts 227°
2026-05-03 22:21 52.48103 10.50369 3036 ft 186 kts 266°
2026-05-03 22:21 52.48120 10.48238 3034 ft 186 kts 272°
2026-05-03 22:22 52.48165 10.46113 3034 ft 186 kts 272°
2026-05-03 22:22 52.48209 10.44021 3035 ft 186 kts 272°
2026-05-03 22:22 52.48254 10.41900 3034 ft 186 kts 272°
2026-05-03 22:22 52.48299 10.39774 3034 ft 186 kts 272°
2026-05-03 22:23 52.48343 10.37654 3033 ft 186 kts 271°
2026-05-03 22:23 52.48221 10.35541 3038 ft 186 kts 260°
2026-05-03 22:23 52.47925 10.33473 3034 ft 186 kts 251°
2026-05-03 22:23 52.47490 10.31471 3032 ft 186 kts 257°
2026-05-03 22:24 52.47299 10.29371 3013 ft 184 kts 264°
2026-05-03 22:24 52.47163 10.27303 2746 ft 182 kts 262°
2026-05-03 22:24 52.46666 10.25410 2567 ft 184 kts 239°
2026-05-03 22:24 52.46328 10.23411 2545 ft 185 kts 267°
2026-05-03 22:25 52.46280 10.21299 2533 ft 185 kts 267°
2026-05-03 22:25 52.46103 10.19210 2525 ft 185 kts 259°
2026-05-03 22:25 52.45856 10.17138 2527 ft 185 kts 259°
2026-05-03 22:25 52.45714 10.15046 2531 ft 185 kts 271°
2026-05-03 22:26 52.45756 10.12965 2532 ft 185 kts 272°
2026-05-03 22:26 52.45801 10.10859 2536 ft 185 kts 272°
2026-05-03 22:26 52.45846 10.08748 2531 ft 185 kts 272°
2026-05-03 22:26 52.45891 10.06645 2527 ft 185 kts 272°
2026-05-03 22:27 52.45937 10.04533 2538 ft 184 kts 272°
2026-05-03 22:27 52.45981 10.02469 2543 ft 179 kts 272°
2026-05-03 22:27 52.46025 10.00425 2536 ft 180 kts 272°
2026-05-03 22:27 52.46069 9.98376 2539 ft 180 kts 272°
2026-05-03 22:28 52.46112 9.96326 2538 ft 180 kts 272°
2026-05-03 22:28 52.46155 9.94282 2513 ft 177 kts 272°
2026-05-03 22:28 52.46197 9.92291 2212 ft 174 kts 272°
2026-05-03 22:28 52.46239 9.90287 2054 ft 174 kts 272°
2026-05-03 22:29 52.46280 9.88315 2029 ft 172 kts 272°
2026-05-03 22:29 52.46321 9.86387 1792 ft 167 kts 272°
2026-05-03 22:29 52.46361 9.84486 1357 ft 170 kts 272°
2026-05-03 22:29 52.46402 9.82555 1092 ft 170 kts 272°
2026-05-03 22:30 52.46443 9.80611 1035 ft 170 kts 272°
2026-05-03 22:30 52.46483 9.78668 1032 ft 170 kts 272°
2026-05-03 22:30 52.46528 9.76723 810 ft 169 kts 272°
2026-05-03 22:30 52.46573 9.74785 624 ft 170 kts 272°
2026-05-03 22:31 52.46626 9.72853 495 ft 170 kts 272°
2026-05-03 22:31 52.46672 9.70919 370 ft 169 kts 272°
2026-05-03 22:31 52.46716 9.68985 237 ft 169 kts 273°
2026-05-03 22:31 52.46773 9.67209 182 ft 140 kts 273°
2026-05-03 22:32 52.46805 9.66123 176 ft 36 kts 273°
2026-05-03 22:32 52.46798 9.65980 174 ft 23 kts 259°
2026-05-03 22:32 52.46818 9.65521 171 ft 54 kts 274°
2026-05-03 22:32 52.46719 9.65257 175 ft 19 kts 171°
2026-05-03 22:33 52.46609 9.65350 177 ft 15 kts 131°
2026-05-03 22:33 52.46591 9.65504 178 ft 15 kts 98°
2026-05-03 22:33 52.46581 9.65805 178 ft 46 kts 93°
2026-05-03 22:33 52.46571 9.66341 175 ft 47 kts 94°
2026-05-03 22:34 52.46555 9.66866 176 ft 45 kts 94°
2026-05-03 22:34 52.46538 9.67362 181 ft 42 kts 89°
2026-05-03 22:34 52.46524 9.67834 181 ft 41 kts 91°
2026-05-03 22:34 52.46508 9.68267 180 ft 30 kts 109°
2026-05-03 22:35 52.46367 9.68511 181 ft 30 kts 142°
2026-05-03 22:35 52.46193 9.68726 179 ft 32 kts 143°
2026-05-03 22:35 52.46012 9.68955 176 ft 34 kts 143°
2026-05-03 22:35 52.45826 9.69182 178 ft 33 kts 142°
2026-05-03 22:36 52.45763 9.69451 181 ft 18 kts 70°
2026-05-03 22:36 52.45816 9.69551 180 ft 0 kts 52°
2026-05-03 22:36 52.45809 9.69537 180 ft 3 kts 52°
2026-05-03 22:36 52.45810 9.69538 180 ft 0 kts 52°